Probability
0 0 0 0 0 0 0 0 0 0 0 0 0 0 0 0 0 0 0 0 0 0 0 0 0 0 0 0 0 0 0 0 0 0 0 0 0 0 0 0 0 0 0 0
0 0 0 0 0 0 0 0 0 0 0 0 0 0 0 0 0 0 0 0 0 0 0 0 0 0 0 0 0 0 0 0 0 0 0 0 0 0 0 0 0 0 0 0
0 0 0 0 0 0 0 0 0 0 0 0 0 0 0 0 0 0 0 0 0 0 0 0 0 0 0 0 0 0 0 0 0 0 0 0 0 0 0 0 0 0 0 0
0 0 0 0 0 0 0 0 0 0 0 0 0 0 0 0 0 0 0 0 0 0 0 0 0 0 0 0 0 0 0 0 0 0 0 0 0 0 0 0 0 0 0 0
0 0 0 0 0 0 0 0 0 0 0 0 0 0 0 0 0 0 0 0 0 0 0 0 0 0 0 0 0 0 0 0 0 0 0 0 0 0 0 0 0 0 0 0
0 0 0 0 0 0 0 0 0 0 0 0 0 0 0 0 0 0 0 0 0 0 0 0 0 0 0 0 0 0 0 0 0 0 0 0 0 0 0 0 0 0 0 0
0 0 0 0 0 0 0 0 0 0 0 0 0 0 0 0 0 0 0 0 0 0 0 0 0 0 0 0 0 0 0 0 0 0 0 0 0 0 0 0 0 0 0 0
0 0 0 0 0 0 0 0 0 0 0 0 0 0 0 0 0 0 0 0 0 0 0 0 0 0 0 0 0 0 0 0 0 0 0 0 0 0 0 0 0 0 0 0
0 0 0 0 0 0 0 0 0 0 0 0 0 0 0 0 0 0 0 0 0 0 0 0 0 0 0 0 0 0 0 0 0 0 0 0 0 0 0 0 0 0 0 0
0 0 0 0 0 0 0 0 0 0 0 0 0 0 0 0 0 0 0 0 0 0 0 0 0 0 0 0 0 0 0 0 0 0 0 0 0 0 0 0 0 0 0 0
0 0 0 0 0 0 0 0 0 0 0 0 0 0 0 0 0 0 0 0 0 0 0 0 0 0 0 0 0 0 0 0 0 0 0 0 0 0 0 0 0 0 0 0
0 0 0 0 0 0 0 0 0 0 0 0 0 0 0 0 0 0 0 0 0 0 0 0 0 0 0 0 0 0 0 0 0 0 0 0 0 0 0 0 0 0 0 0
0 0 0 0 0 0 0 0 0 0 0 0 0 0 0 0 0 0 0 0 0 0 0 0 0 0 0 0 0 0 0 0 0 0 0 0 0 0 0 0 0 0 0 0
0 0 0 0 0 0 0 0 0 0 0 0 0 0 0 0 0 0 0 0 0 0 0 0 0 0 0 0 0 0 0 0 0 0 0 0 0 0 0 0 0 0 0 0
0 0 0 0 0 0 0 0 0 0 0 0 0 0 0 0 0 0 0 0 0 0 0 0 0 0 0 0 0 0 0 0 0 0 0 0 0 0 0 0 0 0 0 0
0 0 0 0 0 0 0 0 0 0 0 0 0 0 0 0 0 0 0 0 0 0 0 0 0 0 0 0 0 0 0 0 0 0 0 0 0 0 0 0 0 0 0 0
0 0 0 0 0 0 0 0 0 0 0 0 0 0 0 0 0 0 0 0 0 0 0 0 0 0 0 0 0 0 0 0 0 0 0 0 0 0 0 0 0 0 0 0
0 0 0 0 0 0 0 0 0 0 0 0 0 0 0 0 0 0 0 0 0 0 0 0 0 0 0 0 0 0 0 0 0 0 0 0 0 0 0 0 0 0 0 0
0 0 0 0 0 0 0 0 0 0 0 0 0 0 0 0 0 0 0 0 0 0 0 0 0 0 0 0 0 0 0 0 0 0 0 0 0 0 0 0 0 0 0 0
0 0 0 0 0 0 0 0 0 0 0 0 0 0 0 0 0 0 0 0 0 0 0 0 0 0 0 0 0 0 0 0 0 0 0 0 0 0 0 0 0 0 0 0
0 0 0 0 0 0 0 0 0 0 0 0 0 0 0 0 0 0 0 0 0 0 0 0 0 0 0 0 0 0 0 0 0 0 0 0 0 0 0 0 0 0 0 0
0 0 0 0 0 0 0 0 0 0 0 0 0 0 0 0 0 0 0 0 0 0 0 0 0 0 0 0 0 0 0 0 0 0 0 0 0 0 0 0 0 0 0 0
0 0 0 0 0 0 0 0 0 0 0 0 0 0 0 0 0 0 0 0 0 0 0 0 0 0 0 0 0 0 0 0 0 0 0 0 0 0 0 0 0 0 0 0
0 0 0 0 0 0 0 0 0 0 0 0 0 0 0 0 0 0 0 0 0 0 0 0 0 0 0 0 0 0 0 0 0 0 0 0 0 0 0 0 0 0 0 0
0 0 0 0 0 0 0 0 0 0 0 0 0 0 0 0 0 0 0 0 0 0 0 0 0 0 0 0 0 0 0 0 0 0 0 0 0 0 0 0 0 0 0 0
0 0 0 0 0 0 0 0 0 0 0 0 0 0 0 0 0 0 0 0 0 0 0 0 0 0 0 0 0 0 0 0 0 0 0 0 0 0 0 0 0 0 0 0
0 0 0 0 0 0 0 0 0 0 0 0 0 0 0 0 0 0 0 0 0 0 0 0 0 0 0 0 0 0 0 0 0 0 0 0 0 0 0 0 0 0 0 0
Height
5781 5778 5773 5770 5769 5764 5757 5752 5746 5743 5737 5732 5725 5720 5716 5711 5705 5700 5694 5689 5683 5677 5671 5665 5658 5652 5645 5639 5631 5624 5618 5611 5603 5596 5588 5581 5574 5566 5559 5552 5545 5537 5530 5523
5772 5769 5764 5761 5760 5754 5748 5742 5737 5732 5728 5722 5715 5710 5704 5698 5692 5687 5681 5675 5669 5663 5656 5649 5643 5636 5630 5622 5615 5608 5600 5593 5586 5578 5571 5563 5556 5549 5542 5535 5528 5521 5514 5507
5761 5758 5754 5752 5749 5743 5738 5734 5729 5723 5718 5711 5706 5700 5693 5687 5681 5675 5668 5662 5655 5649 5642 5634 5627 5620 5613 5606 5599 5591 5583 5576 5568 5561 5554 5547 5540 5533 5526 5519 5512 5505 5498 5491
5750 5748 5743 5745 5738 5733 5727 5724 5718 5712 5706 5700 5695 5689 5682 5675 5668 5662 5655 5648 5641 5634 5627 5620 5612 5604 5597 5590 5582 5574 5567 5560 5552 5545 5538 5531 5524 5517 5510 5503 5497 5490 5483 5476
5741 5736 5733 5733 5728 5720 5715 5712 5706 5700 5694 5689 5683 5678 5671 5662 5655 5648 5641 5634 5627 5619 5612 5604 5597 5589 5582 5575 5567 5560 5552 5545 5537 5530 5524 5517 5510 5502 5495 5488 5481 5475 5468 5461
5732 5726 5722 5723 5715 5708 5703 5699 5693 5687 5681 5675 5669 5663 5660 5651 5643 5635 5627 5620 5612 5605 5597 5590 5582 5575 5568 5561 5553 5546 5538 5531 5523 5516 5509 5502 5495 5487 5480 5473 5466 5459 5452 5446
5722 5715 5712 5710 5702 5696 5691 5686 5679 5673 5667 5662 5655 5648 5643 5636 5628 5620 5613 5605 5598 5591 5583 5575 5568 5561 5554 5547 5539 5532 5524 5517 5509 5501 5494 5486 5479 5472 5464 5457 5450 5443 5437 5431
5711 5705 5703 5695 5689 5683 5678 5671 5665 5659 5653 5647 5641 5634 5627 5620 5612 5605 5598 5591 5583 5576 5569 5561 5553 5546 5540 5533 5526 5518 5510 5502 5494 5486 5478 5471 5463 5456 5448 5441 5434 5427 5421 5415
5700 5696 5689 5681 5674 5668 5662 5657 5651 5644 5638 5631 5625 5618 5612 5605 5598 5590 5583 5576 5569 5562 5555 5547 5539 5531 5525 5518 5511 5504 5496 5487 5479 5471 5463 5455 5447 5440 5433 5425 5419 5412 5406 5400
5686 5683 5675 5667 5660 5654 5648 5641 5635 5629 5622 5615 5609 5602 5596 5589 5582 5575 5568 5561 5554 5547 5541 5534 5525 5517 5510 5503 5496 5489 5481 5473 5465 5457 5449 5440 5432 5425 5417 5410 5404 5397 5391 5385
5670 5666 5659 5654 5646 5640 5633 5626 5619 5613 5606 5598 5592 5586 5579 5573 5566 5559 5553 5546 5539 5532 5525 5519 5511 5504 5496 5488 5481 5474 5466 5458 5450 5442 5434 5426 5418 5410 5403 5396 5389 5383 5377 5371
5653 5648 5641 5637 5629 5622 5616 5609 5603 5596 5589 5582 5575 5569 5563 5556 5550 5543 5537 5530 5524 5517 5510 5504 5497 5489 5481 5474 5467 5459 5452 5444 5436 5428 5419 5411 5404 5397 5389 5383 5376 5369 5363 5358
5635 5631 5624 5618 5612 5605 5598 5592 5585 5578 5571 5565 5558 5551 5546 5540 5534 5527 5521 5514 5508 5502 5495 5489 5482 5475 5467 5460 5452 5445 5437 5430 5422 5414 5406 5398 5390 5383 5377 5371 5364 5358 5351 5346
5616 5611 5606 5600 5593 5587 5580 5574 5567 5561 5554 5547 5541 5535 5529 5524 5518 5512 5505 5499 5493 5487 5480 5474 5467 5460 5453 5446 5439 5431 5424 5416 5409 5401 5393 5385 5378 5371 5365 5358 5353 5347 5341 5335
5598 5592 5586 5581 5575 5569 5562 5556 5550 5545 5538 5532 5526 5519 5514 5509 5504 5498 5491 5485 5479 5473 5466 5460 5453 5446 5439 5432 5426 5419 5411 5404 5397 5389 5382 5374 5367 5360 5354 5347 5341 5335 5330 5324
5581 5574 5569 5563 5557 5552 5545 5539 5534 5529 5523 5517 5511 5506 5500 5494 5489 5484 5477 5471 5465 5459 5452 5446 5440 5433 5426 5419 5413 5406 5399 5392 5384 5377 5370 5363 5356 5349 5343 5337 5331 5325 5319 5314
5563 5558 5552 5547 5541 5535 5530 5523 5518 5513 5508 5502 5497 5492 5486 5481 5476 5470 5464 5457 5451 5444 5438 5432 5426 5420 5413 5407 5400 5394 5388 5381 5373 5366 5359 5352 5345 5339 5332 5326 5320 5314 5309 5305
5546 5540 5535 5530 5524 5520 5515 5509 5504 5498 5493 5488 5483 5478 5472 5467 5461 5456 5451 5445 5438 5432 5425 5419 5414 5408 5401 5395 5389 5383 5376 5369 5363 5355 5348 5342 5335 5328 5322 5316 5310 5305 5300 5296
5530 5525 5520 5515 5509 5504 5499 5495 5490 5485 5479 5474 5469 5464 5459 5453 5447 5442 5437 5431 5425 5421 5415 5408 5402 5396 5390 5384 5378 5372 5365 5359 5352 5345 5338 5331 5325 5318 5312 5306 5301 5296 5292 5289
5516 5511 5506 5501 5496 5491 5486 5481 5476 5471 5466 5460 5455 5450 5446 5440 5434 5429 5425 5419 5413 5407 5403 5397 5391 5386 5380 5374 5367 5361 5355 5348 5341 5335 5328 5322 5315 5309 5303 5298 5293 5289 5285 5282
5502 5498 5493 5488 5483 5478 5473 5467 5462 5458 5453 5448 5442 5437 5432 5428 5422 5417 5412 5408 5403 5396 5391 5386 5380 5375 5369 5363 5357 5351 5345 5338 5332 5325 5319 5313 5307 5301 5296 5291 5286 5283 5279 5277
5489 5484 5480 5475 5470 5466 5461 5455 5450 5445 5440 5435 5430 5424 5420 5415 5411 5406 5401 5396 5391 5386 5381 5375 5370 5365 5359 5353 5347 5341 5335 5329 5323 5317 5311 5305 5300 5295 5290 5285 5281 5277 5274 5272
5475 5471 5466 5462 5457 5453 5448 5443 5437 5432 5428 5423 5418 5412 5407 5403 5399 5394 5391 5386 5380 5375 5370 5365 5360 5355 5349 5344 5338 5333 5327 5321 5315 5309 5304 5298 5293 5289 5285 5280 5277 5273 5271 5268
5462 5458 5454 5449 5444 5440 5436 5431 5426 5421 5416 5411 5406 5401 5395 5392 5388 5384 5379 5375 5370 5366 5361 5356 5351 5346 5341 5335 5330 5325 5319 5313 5308 5302 5297 5292 5288 5284 5280 5276 5273 5270 5268 5265
5450 5446 5441 5437 5432 5427 5423 5419 5415 5410 5405 5400 5396 5390 5385 5381 5377 5374 5370 5366 5361 5357 5352 5348 5343 5338 5333 5328 5323 5317 5312 5307 5302 5297 5292 5287 5283 5279 5276 5273 5270 5268 5265 5263
5437 5433 5429 5424 5419 5414 5410 5406 5402 5398 5393 5389 5386 5381 5376 5372 5368 5364 5360 5357 5352 5348 5344 5340 5335 5331 5326 5321 5316 5311 5306 5301 5296 5292 5287 5283 5279 5276 5273 5271 5268 5266 5264 5261
5424 5420 5416 5413 5408 5403 5399 5394 5390 5386 5382 5378 5374 5371 5367 5363 5359 5355 5352 5348 5344 5341 5336 5332 5328 5324 5320 5315 5310 5305 5301 5296 5292 5288 5284 5280 5277 5274 5272 5269 5267 5265 5262 5260
Wind_Speed
35 36 38 39 37 37 41 43 46 46 47 47 49 50 50 50 50 51 51 50 51 51 51 52 52 53 55 56 58 60 61 62 63 64 65 65 65 64 64 63 63 62 62 60
37 36 39 39 36 38 40 42 44 45 45 47 49 50 50 51 51 52 52 52 53 53 54 54 55 56 57 58 60 61 62 62 62 63 63 62 62 61 60 60 59 59 58 57
38 38 39 37 37 38 40 41 44 46 47 49 49 50 50 51 52 53 54 54 54 55 56 57 58 59 59 59 59 60 60 60 59 58 58 57 57 57 56 57 58 57 56 55
41 41 41 38 39 41 43 43 45 46 47 49 49 49 51 53 54 54 55 56 56 57 57 58 59 59 58 58 57 57 56 55 55 54 54 54 54 54 55 56 56 54 54 53
41 43 43 40 42 44 46 46 47 49 50 50 51 51 53 55 56 57 58 58 59 59 59 59 58 57 56 55 54 54 53 53 53 53 52 52 53 53 54 55 54 54 54 53
41 44 46 46 47 49 51 52 52 53 53 54 55 56 55 56 58 58 59 60 60 60 59 57 57 56 55 54 54 53 53 53 53 54 54 54 54 55 54 54 54 54 53 53
44 47 48 48 50 52 54 56 56 56 57 58 58 60 60 60 61 61 61 61 61 60 58 57 56 56 55 54 54 53 53 54 54 55 55 55 55 54 54 54 54 54 53 52
48 50 50 52 54 55 57 59 59 60 60 61 61 62 63 63 63 63 62 62 61 60 58 57 56 56 55 55 54 54 54 55 55 55 55 55 55 55 55 54 54 53 52 52
51 52 53 56 58 59 61 62 62 63 64 64 64 65 65 64 64 63 62 61 60 59 57 56 56 56 56 55 55 55 55 56 55 55 55 55 55 54 53 53 53 52 51 51
55 55 56 59 61 62 64 65 65 66 67 67 67 67 66 65 64 63 61 61 60 58 57 56 56 56 56 56 56 56 55 55 54 54 54 54 53 53 53 52 52 51 49 49
59 59 61 62 64 65 66 67 67 68 68 68 68 67 66 65 64 63 62 60 59 58 56 55 55 55 56 56 55 55 55 54 54 54 54 53 52 52 52 51 50 49 48 47
63 64 66 66 67 68 69 69 69 69 69 68 68 67 66 65 64 63 62 60 58 57 56 56 55 55 56 56 55 55 54 54 54 54 53 52 51 50 49 49 47 46 46 45
66 67 68 68 69 69 70 70 70 69 68 68 66 66 65 64 63 62 61 59 58 57 56 55 55 55 55 55 55 54 53 53 52 52 52 50 49 48 47 46 45 44 43 42
69 69 69 69 69 69 69 68 68 67 66 65 65 64 63 62 61 59 58 57 57 55 55 55 55 55 55 54 53 53 52 52 51 51 50 49 47 46 45 44 43 42 41 40
69 70 69 69 68 67 66 65 64 63 62 61 61 61 61 59 58 56 55 55 55 54 54 54 53 53 52 52 51 51 50 50 50 49 48 47 46 45 44 43 42 41 41 39
68 67 66 65 64 63 62 61 60 59 58 58 58 57 57 56 55 53 53 54 53 53 52 51 51 50 50 50 49 49 48 48 48 47 46 46 45 44 43 42 41 40 38 36
64 63 62 61 59 58 57 56 56 55 55 55 55 54 53 52 52 51 51 51 51 51 51 50 49 49 49 48 47 47 47 46 46 46 45 44 44 43 42 41 40 38 35 32
60 59 57 56 55 54 53 53 53 53 53 53 52 52 51 51 51 50 49 49 50 49 49 49 48 47 47 46 46 45 45 45 45 44 43 43 43 42 41 40 37 34 31 29
55 54 53 52 51 51 50 51 51 52 52 52 51 51 51 51 50 50 49 49 48 47 47 46 46 45 45 44 44 44 44 45 44 43 42 42 41 40 38 36 33 30 28 27
51 51 50 50 49 49 49 50 50 50 51 51 51 50 49 49 50 48 47 47 47 47 45 44 44 43 43 43 43 43 44 43 42 41 40 39 38 36 34 32 30 27 25 24
49 49 49 49 49 49 49 50 50 49 49 50 50 49 49 48 48 47 45 44 44 44 43 42 42 41 41 42 42 42 41 40 40 39 38 36 35 33 31 29 26 24 22 22
48 48 48 49 49 48 49 50 50 50 50 49 49 49 49 47 46 44 43 43 41 41 40 40 40 40 40 40 40 39 38 37 37 36 35 33 31 29 28 26 23 21 20 19
48 48 49 49 49 49 49 49 49 50 50 49 48 48 47 45 43 41 39 39 39 39 38 38 38 38 37 37 37 36 35 35 35 34 32 30 27 26 25 23 21 18 17 17
48 48 48 48 49 49 48 48 48 48 48 47 46 45 44 42 39 38 38 37 37 36 35 35 35 35 35 35 35 35 34 33 32 30 29 27 25 24 22 20 18 17 16 15
48 48 48 48 48 48 47 47 46 45 44 43 42 42 41 40 38 36 35 35 34 34 33 34 34 34 33 33 33 32 31 30 29 27 26 24 23 21 18 17 16 14 13 13
48 47 47 47 47 46 46 45 44 43 42 40 39 38 38 37 36 35 34 33 33 32 32 32 31 31 31 31 31 30 29 28 26 24 23 21 19 17 16 15 13 12 12 13
47 46 45 44 44 44 44 43 42 41 40 39 37 35 35 34 33 33 32 31 30 30 30 29 29 29 29 29 29 27 26 24 23 21 20 18 17 16 15 14 13 12 12 12
Wind_Direction
301 302 300 302 305 304 302 301 302 305 305 306 304 306 307 307 307 307 308 308 307 306 305 304 303 301 300 298 297 297 296 296 295 294 294 294 295 295 296 296 296 296 297 297
300 300 299 302 305 302 301 301 302 304 304 303 304 306 307 307 307 308 308 308 307 306 305 304 303 302 301 300 299 298 297 297 296 295 295 295 296 295 296 296 296 296 297 297
301 302 301 305 306 303 302 302 302 303 303 303 305 306 307 307 307 307 308 308 308 307 306 305 304 303 302 301 301 300 300 299 298 297 297 297 296 296 296 296 296 297 297 297
303 304 303 308 306 304 303 303 303 303 303 305 306 307 307 307 307 308 308 309 308 308 307 306 305 304 303 303 302 302 301 301 300 300 299 299 299 298 297 297 298 297 297 297
302 303 304 307 306 305 305 305 304 304 305 306 306 306 308 308 308 308 308 307 307 306 306 306 306 306 306 305 304 303 303 302 301 301 300 300 301 301 300 299 298 297 297 297
302 302 304 308 306 304 304 304 304 305 306 306 306 306 307 306 306 306 306 306 306 306 306 306 306 306 306 306 305 304 304 303 302 301 301 301 301 301 300 300 298 297 297 296
300 300 303 304 303 303 303 304 304 304 305 305 305 305 305 305 305 305 305 306 306 306 306 306 305 305 306 306 305 305 304 303 303 302 302 302 302 301 301 300 299 298 297 296
299 300 302 301 301 300 300 301 302 302 303 303 303 303 303 303 304 304 304 305 305 305 306 305 305 305 306 306 306 306 305 304 304 303 303 303 303 302 301 300 299 298 297 296
298 299 299 298 297 298 298 299 300 300 300 300 301 301 301 302 303 303 304 304 305 305 305 304 304 305 306 306 307 306 306 305 305 304 304 304 304 303 302 302 300 300 299 297
295 295 294 294 295 296 296 297 297 298 298 299 299 299 300 301 302 302 303 304 304 304 304 304 305 306 306 306 307 307 307 306 306 306 306 306 305 304 304 303 302 301 300 299
293 294 293 294 294 294 295 295 296 296 297 297 298 299 299 300 300 301 302 303 303 303 304 304 305 305 305 306 307 308 308 308 308 308 308 307 306 306 305 305 303 302 300 300
293 294 293 294 294 294 294 294 295 295 296 296 297 298 298 299 299 300 302 302 302 303 303 304 305 305 305 307 308 308 308 308 308 309 309 308 307 307 306 306 306 305 302 299
292 292 292 293 293 293 294 294 294 295 295 296 296 297 298 298 299 300 301 302 302 303 304 304 305 306 306 307 308 308 308 309 310 310 310 309 308 308 308 307 307 306 304 301
292 292 292 293 293 293 294 294 295 295 295 296 296 297 297 298 299 301 302 302 303 303 304 304 305 306 306 307 308 308 309 310 310 311 311 311 309 309 309 308 307 306 305 303
292 292 293 293 294 294 294 295 295 295 295 295 296 297 298 299 300 301 302 302 303 303 304 305 305 306 306 307 307 308 309 310 310 311 312 312 311 310 309 308 308 308 306 305
292 293 294 294 295 295 295 295 295 295 295 295 296 297 298 299 300 301 301 302 303 303 303 304 305 305 306 307 308 309 310 310 310 311 312 312 312 311 310 310 309 309 307 305
293 294 294 294 295 295 295 295 295 295 296 296 297 298 299 300 301 301 302 302 303 304 304 304 305 305 306 307 308 310 310 311 311 312 312 313 312 312 311 310 310 308 306 304
294 295 295 296 296 296 295 295 295 296 297 298 299 300 301 301 301 301 301 302 302 304 305 305 306 306 307 308 309 310 311 312 312 313 313 313 312 312 312 311 310 309 306 305
296 296 296 295 295 295 295 295 295 297 298 299 299 300 300 301 301 301 302 302 303 304 305 305 306 307 308 309 309 310 311 312 313 313 313 313 313 313 313 312 310 308 306 306
294 295 295 296 296 296 296 297 297 298 300 300 301 302 302 302 302 302 302 302 303 305 305 305 306 308 309 310 310 311 312 313 314 314 315 315 315 315 315 314 312 310 308 306
294 294 295 296 296 297 297 297 298 299 300 301 302 302 303 303 304 304 303 303 304 305 306 307 308 309 310 311 312 313 314 314 315 316 316 316 316 317 316 316 313 310 308 308
294 295 296 296 297 297 298 298 299 300 301 302 302 303 303 304 304 304 305 306 307 307 308 308 309 311 312 313 314 314 315 316 317 317 318 318 318 318 319 318 316 313 311 310
295 296 297 298 298 299 299 300 301 302 302 303 303 304 304 304 305 304 305 306 308 309 310 310 311 313 314 315 315 316 316 317 318 318 319 319 319 318 319 319 320 319 316 315
296 298 298 299 299 299 300 301 302 303 303 304 304 304 304 304 305 306 307 308 309 311 312 313 314 315 316 317 318 318 318 319 320 319 320 321 320 321 320 320 321 319 319 320
296 298 299 299 300 301 301 302 303 303 303 304 304 304 304 304 305 306 308 309 310 311 312 313 314 316 317 319 319 320 320 321 321 321 321 322 322 324 325 325 325 324 325 328
296 298 299 300 301 301 303 304 304 304 304 304 304 304 304 304 305 307 308 309 310 312 313 314 315 317 320 321 321 321 321 322 323 323 324 325 326 328 330 331 331 331 331 333
295 297 298 299 300 301 303 304 304 304 304 305 305 305 305 305 305 306 307 308 309 312 314 315 316 319 322 323 323 323 323 323 324 325 327 327 328 329 331 332 333 334 336 339